"Sample Date","Sample Time","Sensor Name","Sample Value","Units","Flow Rate","Sample Interval","Sample Volume","Laser Status","Number Channels","Micron Size 0","Counts/Channel 0","Micron Size 1","Counts/Channel 1","Micron Size 2","Counts/Channel 2","Micron Size 3","Counts/Channel 3","Micron Size 4","Counts/Channel 4","Micron Size 5","Counts/Channel 5","Micron Size 6","Counts/Channel 6","Micron Size 7","Counts/Channel 7","Micron Size 8","Counts/Channel 8","Micron Size 9","Counts/Channel 9","Micron Size 10","Counts/Channel 10","Micron Size 11","Counts/Channel 11","Micron Size 12","Counts/Channel 12","Micron Size 13","Counts/Channel 13","Micron Size 14","Counts/Channel 14","Micron Size 15","Counts/Channel 15","Micron Size 16","Counts/Channel 16","Micron Size 17","Counts/Channel 17","Micron Size 18","Counts/Channel 18","Micron Size 19","Counts/Channel 19","Micron Size 20","Counts/Channel 20","Micron Size 21","Counts/Channel 21","Micron Size 22","Counts/Channel 22","Micron Size 23","Counts/Channel 23","Micron Size 24","Counts/Channel 24","Micron Size 25","Counts/Channel 25","Micron Size 26","Counts/Channel 26","Micron Size 27","Counts/Channel 27","Micron Size 28","Counts/Channel 28","Micron Size 29","Counts/Channel 29","Micron Size 30","Counts/Channel 30","Micron Size 31","Counts/Channel 31"
"07/10/06","01:00:02","AMMA06",62309.000,"cc",28344.805,6.00,2834.481,1,6,0.100,45934.000,0.200,14382.000,0.300,1834.000,0.500,118.000,1.000,41.000,5.000,0
"07/10/06","01:00:08","AMMA06",61226.000,"cc",28311.549,6.00,2831.155,1,6,0.100,45151.000,0.200,14162.000,0.300,1760.000,0.500,122.000,1.000,31.000,5.000,0
"07/10/06","01:00:14","AMMA06",61675.000,"cc",28335.186,6.00,2833.519,1,6,0.100,45346.000,0.200,14192.000,0.300,1912.000,0.500,150.000,1.000,75.000,5.000,0
"07/10/06","01:00:20","AMMA06",60995.000,"cc",28298.090,6.00,2829.809,1,6,0.100,44831.000,0.200,14168.000,0.300,1775.000,0.500,159.000,1.000,62.000,5.000,0
"07/10/06","01:00:26","AMMA06",60678.000,"cc",28278.639,6.00,2827.864,1,6,0.100,44607.000,0.200,14133.000,0.300,1765.000,0.500,128.000,1.000,45.000,5.000,0
"07/10/06","01:00:32","AMMA06",60153.000,"cc",28330.717,6.00,2833.072,1,6,0.100,44076.000,0.200,14110.000,0.300,1810.000,0.500,117.000,1.000,40.000,5.000,0
"07/10/06","01:00:38","AMMA06",60156.000,"cc",28348.270,6.00,2834.827,1,6,0.100,44158.000,0.200,14105.000,0.300,1738.000,0.500,115.000,1.000,40.000,5.000,0
"07/10/06","01:00:44","AMMA06",60278.000,"cc",28344.539,6.00,2834.454,1,6,0.100,44280.000,0.200,14067.000,0.300,1780.000,0.500,115.000,1.000,36.000,5.000,0
"07/10/06","01:00:50","AMMA06",60397.000,"cc",28297.660,6.00,2829.766,1,6,0.100,44459.000,0.200,13945.000,0.300,1831.000,0.500,113.000,1.000,48.000,5.000,1.000
"07/10/06","01:00:56","AMMA06",59110.000,"cc",28291.186,6.00,2829.119,1,6,0.100,43280.000,0.200,13817.000,0.300,1835.000,0.500,129.000,1.000,49.000,5.000,0
"07/10/06","01:01:02","AMMA06",59147.000,"cc",28315.045,6.00,2831.505,1,6,0.100,43553.000,0.200,13698.000,0.300,1732.000,0.500,120.000,1.000,44.000,5.000,0
"07/10/06","01:01:08","AMMA06",59065.000,"cc",28353.932,6.00,2835.393,1,6,0.100,43042.000,0.200,14014.000,0.300,1849.000,0.500,124.000,1.000,36.000,5.000,0
"07/10/06","01:01:14","AMMA06",59490.000,"cc",28326.033,6.00,2832.604,1,6,0.100,43359.000,0.200,14237.000,0.300,1717.000,0.500,119.000,1.000,58.000,5.000,0
"07/10/06","01:01:20","AMMA06",59087.000,"cc",28333.563,6.00,2833.356,1,6,0.100,43335.000,0.200,13825.000,0.300,1741.000,0.500,142.000,1.000,44.000,5.000,0
"07/10/06","01:01:26","AMMA06",59069.000,"cc",28301.561,6.00,2830.156,1,6,0.100,43206.000,0.200,13991.000,0.300,1716.000,0.500,122.000,1.000,34.000,5.000,0
"07/10/06","01:01:32","AMMA06",58969.000,"cc",28299.695,6.00,2829.970,1,6,0.100,42853.000,0.200,14227.000,0.300,1729.000,0.500,120.000,1.000,40.000,5.000,0
"07/10/06","01:01:38","AMMA06",58191.000,"cc",28326.551,6.00,2832.655,1,6,0.100,42335.000,0.200,13877.000,0.300,1807.000,0.500,126.000,1.000,46.000,5.000,0
"07/10/06","01:01:44","AMMA06",57898.000,"cc",28321.445,6.00,2832.145,1,6,0.100,42283.000,0.200,13714.000,0.300,1732.000,0.500,123.000,1.000,46.000,5.000,0
"07/10/06","01:01:50","AMMA06",57578.000,"cc",28300.193,6.00,2830.020,1,6,0.100,41837.000,0.200,13749.000,0.300,1798.000,0.500,135.000,1.000,59.000,5.000,0
"07/10/06","01:01:56","AMMA06",56955.000,"cc",28314.506,6.00,2831.451,1,6,0.100,41323.000,0.200,13735.000,0.300,1715.000,0.500,129.000,1.000,53.000,5.000,0
"07/10/06","01:02:02","AMMA06",57192.000,"cc",28298.568,6.00,2829.857,1,6,0.100,41377.000,0.200,13911.000,0.300,1707.000,0.500,139.000,1.000,58.000,5.000,0
"07/10/06","01:02:08","AMMA06",57242.000,"cc",28316.912,6.00,2831.691,1,6,0.100,41451.000,0.200,13828.000,0.300,1790.000,0.500,133.000,1.000,40.000,5.000,0
"07/10/06","01:02:14","AMMA06",57596.000,"cc",28357.781,6.00,2835.778,1,6,0.100,41632.000,0.200,14001.000,0.300,1784.000,0.500,133.000,1.000,46.000,5.000,0
"07/10/06","01:02:20","AMMA06",57516.000,"cc",28316.119,6.00,2831.612,1,6,0.100,41776.000,0.200,13735.000,0.300,1839.000,0.500,114.000,1.000,52.000,5.000,0
"07/10/06","01:02:26","AMMA06",58692.000,"cc",28301.703,6.00,2830.170,1,6,0.100,42685.000,0.200,14042.000,0.300,1773.000,0.500,146.000,1.000,46.000,5.000,0
"07/10/06","01:02:32","AMMA06",59520.000,"cc",28304.588,6.00,2830.459,1,6,0.100,43473.000,0.200,14112.000,0.300,1744.000,0.500,126.000,1.000,65.000,5.000,0
"07/10/06","01:02:38","AMMA06",59069.000,"cc",28337.299,6.00,2833.730,1,6,0.100,42898.000,0.200,14168.000,0.300,1824.000,0.500,128.000,1.000,51.000,5.000,0
"07/10/06","01:02:44","AMMA06",58884.000,"cc",28352.731,6.00,2835.273,1,6,0.100,42750.000,0.200,14069.000,0.300,1870.000,0.500,130.000,1.000,65.000,5.000,0
"07/10/06","01:02:50","AMMA06",60063.000,"cc",28281.791,6.00,2828.179,1,6,0.100,43878.000,0.200,14159.000,0.300,1848.000,0.500,132.000,1.000,46.000,5.000,0
"07/10/06","01:02:56","AMMA06",61540.000,"cc",28337.459,6.00,2833.746,1,6,0.100,45223.000,0.200,14251.000,0.300,1899.000,0.500,122.000,1.000,45.000,5.000,0
"07/10/06","01:03:02","AMMA06",62009.000,"cc",28316.523,6.00,2831.653,1,6,0.100,45111.000,0.200,14544.000,0.300,2058.000,0.500,218.000,1.000,78.000,5.000,0
"07/10/06","01:03:08","AMMA06",62765.000,"cc",28349.174,6.00,2834.918,1,6,0.100,46051.000,0.200,14620.000,0.300,1938.000,0.500,111.000,1.000,45.000,5.000,0
"07/10/06","01:03:14","AMMA06",63004.000,"cc",28324.854,6.00,2832.486,1,6,0.100,46206.000,0.200,14662.000,0.300,1940.000,0.500,147.000,1.000,49.000,5.000,0
"07/10/06","01:03:20","AMMA06",63984.000,"cc",28298.219,6.00,2829.822,1,6,0.100,47054.000,0.200,14768.000,0.300,1959.000,0.500,140.000,1.000,63.000,5.000,0
"07/10/06","01:03:26","AMMA06",63175.000,"cc",28285.279,6.00,2828.528,1,6,0.100,46441.000,0.200,14645.000,0.300,1848.000,0.500,180.000,1.000,61.000,5.000,0
"07/10/06","01:03:32","AMMA06",61898.000,"cc",28326.627,6.00,2832.663,1,6,0.100,45249.000,0.200,14565.000,0.300,1882.000,0.500,135.000,1.000,67.000,5.000,0
"07/10/06","01:03:38","AMMA06",61682.000,"cc",28341.863,6.00,2834.187,1,6,0.100,45051.000,0.200,14455.000,0.300,1986.000,0.500,131.000,1.000,59.000,5.000,0
"07/10/06","01:03:44","AMMA06",61908.000,"cc",28311.504,6.00,2831.151,1,6,0.100,45071.000,0.200,14660.000,0.300,1937.000,0.500,172.000,1.000,68.000,5.000,0
"07/10/06","01:03:50","AMMA06",63152.000,"cc",28255.963,6.00,2825.596,1,6,0.100,46382.000,0.200,14666.000,0.300,1903.000,0.500,145.000,1.000,56.000,5.000,0
"07/10/06","01:03:56","AMMA06",64305.000,"cc",28343.592,6.00,2834.359,1,6,0.100,47644.000,0.200,14604.000,0.300,1860.000,0.500,137.000,1.000,60.000,5.000,0
"07/10/06","01:04:02","AMMA06",63642.000,"cc",28307.506,6.00,2830.751,1,6,0.100,47100.000,0.200,14539.000,0.300,1837.000,0.500,123.000,1.000,43.000,5.000,0
"07/10/06","01:04:08","AMMA06",64084.000,"cc",28324.600,6.00,2832.460,1,6,0.100,47188.000,0.200,14794.000,0.300,1924.000,0.500,135.000,1.000,43.000,5.000,0
"07/10/06","01:04:14","AMMA06",64073.000,"cc",28297.412,6.00,2829.742,1,6,0.100,47195.000,0.200,14765.000,0.300,1895.000,0.500,163.000,1.000,55.000,5.000,0
"07/10/06","01:04:20","AMMA06",62363.000,"cc",28318.316,6.00,2831.832,1,6,0.100,45763.000,0.200,14501.000,0.300,1915.000,0.500,139.000,1.000,45.000,5.000,0
"07/10/06","01:04:26","AMMA06",62526.000,"cc",28314.785,6.00,2831.479,1,6,0.100,45886.000,0.200,14636.000,0.300,1818.000,0.500,136.000,1.000,50.000,5.000,0
"07/10/06","01:04:32","AMMA06",62672.000,"cc",28307.332,6.00,2830.733,1,6,0.100,46277.000,0.200,14380.000,0.300,1831.000,0.500,134.000,1.000,50.000,5.000,0
"07/10/06","01:04:38","AMMA06",62869.000,"cc",28320.391,6.00,2832.039,1,6,0.100,46194.000,0.200,14550.000,0.300,1924.000,0.500,160.000,1.000,41.000,5.000,0
"07/10/06","01:04:44","AMMA06",62484.000,"cc",28269.877,6.00,2826.988,1,6,0.100,46168.000,0.200,14223.000,0.300,1871.000,0.500,165.000,1.000,57.000,5.000,0
"07/10/06","01:04:50","AMMA06",62601.000,"cc",28371.180,6.00,2837.118,1,6,0.100,46137.000,0.200,14522.000,0.300,1766.000,0.500,130.000,1.000,46.000,5.000,0
"07/10/06","01:04:56","AMMA06",62622.000,"cc",28340.932,6.00,2834.093,1,6,0.100,46074.000,0.200,14584.000,0.300,1811.000,0.500,113.000,1.000,40.000,5.000,0
"07/10/06","01:05:02","AMMA06",62650.000,"cc",28310.371,6.00,2831.037,1,6,0.100,46274.000,0.200,14407.000,0.300,1781.000,0.500,130.000,1.000,58.000,5.000,0
"07/10/06","01:05:08","AMMA06",62611.000,"cc",28359.977,6.00,2835.998,1,6,0.100,46303.000,0.200,14214.000,0.300,1892.000,0.500,152.000,1.000,50.000,5.000,0
"07/10/06","01:05:14","AMMA06",62050.000,"cc",28347.256,6.00,2834.726,1,6,0.100,45846.000,0.200,14210.000,0.300,1808.000,0.500,134.000,1.000,52.000,5.000,0
"07/10/06","01:05:20","AMMA06",61417.000,"cc",28340.543,6.00,2834.054,1,6,0.100,45626.000,0.200,13891.000,0.300,1744.000,0.500,105.000,1.000,51.000,5.000,0
"07/10/06","01:05:26","AMMA06",62085.000,"cc",28233.395,6.00,2823.340,1,6,0.100,45779.000,0.200,14246.000,0.300,1869.000,0.500,133.000,1.000,58.000,5.000,0
"07/10/06","01:05:32","AMMA06",62310.000,"cc",28335.281,6.00,2833.528,1,6,0.100,46005.000,0.200,14276.000,0.300,1836.000,0.500,136.000,1.000,57.000,5.000,0
"07/10/06","01:05:38","AMMA06",62479.000,"cc",28280.791,6.00,2828.079,1,6,0.100,46296.000,0.200,14271.000,0.300,1761.000,0.500,113.000,1.000,38.000,5.000,0
"07/10/06","01:05:44","AMMA06",62626.000,"cc",28323.061,6.00,2832.306,1,6,0.100,46296.000,0.200,14337.000,0.300,1803.000,0.500,121.000,1.000,69.000,5.000,0
"07/10/06","01:05:50","AMMA06",62775.000,"cc",28308.662,6.00,2830.867,1,6,0.100,46494.000,0.200,14296.000,0.300,1830.000,0.500,111.000,1.000,44.000,5.000,0
"07/10/06","01:05:56","AMMA06",61846.000,"cc",28319.008,6.00,2831.901,1,6,0.100,45612.000,0.200,14207.000,0.300,1868.000,0.500,115.000,1.000,44.000,5.000,0
"07/10/06","01:06:02","AMMA06",61954.000,"cc",28349.863,6.00,2834.987,1,6,0.100,45615.000,0.200,14375.000,0.300,1767.000,0.500,147.000,1.000,50.000,5.000,0
"07/10/06","01:06:08","AMMA06",61540.000,"cc",28267.865,6.00,2826.787,1,6,0.100,45396.000,0.200,14160.000,0.300,1804.000,0.500,137.000,1.000,43.000,5.000,0
"07/10/06","01:06:14","AMMA06",60859.000,"cc",28297.621,6.00,2829.762,1,6,0.100,44823.000,0.200,14078.000,0.300,1783.000,0.500,128.000,1.000,47.000,5.000,0
"07/10/06","01:06:20","AMMA06",60857.000,"cc",28346.830,6.00,2834.683,1,6,0.100,44767.000,0.200,14098.000,0.300,1794.000,0.500,142.000,1.000,56.000,5.000,0
"07/10/06","01:06:26","AMMA06",60560.000,"cc",28322.553,6.00,2832.255,1,6,0.100,44391.000,0.200,14129.000,0.300,1814.000,0.500,167.000,1.000,59.000,5.000,0
"07/10/06","01:06:32","AMMA06",60808.000,"cc",28276.885,6.00,2827.689,1,6,0.100,44523.000,0.200,14135.000,0.300,1874.000,0.500,193.000,1.000,83.000,5.000,0
"07/10/06","01:06:38","AMMA06",61345.000,"cc",28341.342,6.00,2834.134,1,6,0.100,45030.000,0.200,14177.000,0.300,1866.000,0.500,202.000,1.000,70.000,5.000,0
"07/10/06","01:06:44","AMMA06",61191.000,"cc",28369.107,6.00,2836.911,1,6,0.100,45223.000,0.200,14032.000,0.300,1766.000,0.500,119.000,1.000,51.000,5.000,0
"07/10/06","01:06:50","AMMA06",61318.000,"cc",28262.705,6.00,2826.271,1,6,0.100,45225.000,0.200,14118.000,0.300,1789.000,0.500,133.000,1.000,53.000,5.000,0
"07/10/06","01:06:56","AMMA06",61560.000,"cc",28301.930,6.00,2830.193,1,6,0.100,45492.000,0.200,14098.000,0.300,1807.000,0.500,122.000,1.000,41.000,5.000,0
"07/10/06","01:07:02","AMMA06",62005.000,"cc",28315.984,6.00,2831.599,1,6,0.100,45905.000,0.200,14132.000,0.300,1790.000,0.500,138.000,1.000,40.000,5.000,0
"07/10/06","01:07:08","AMMA06",61817.000,"cc",28331.260,6.00,2833.126,1,6,0.100,45643.000,0.200,14196.000,0.300,1811.000,0.500,122.000,1.000,45.000,5.000,0
"07/10/06","01:07:14","AMMA06",62261.000,"cc",28365.525,6.00,2836.553,1,6,0.100,46135.000,0.200,14051.000,0.300,1852.000,0.500,162.000,1.000,61.000,5.000,0
"07/10/06","01:07:20","AMMA06",62506.000,"cc",28370.094,6.00,2837.010,1,6,0.100,46255.000,0.200,14277.000,0.300,1792.000,0.500,132.000,1.000,50.000,5.000,0
"07/10/06","01:07:26","AMMA06",63282.000,"cc",28266.219,6.00,2826.622,1,6,0.100,46951.000,0.200,14382.000,0.300,1799.000,0.500,108.000,1.000,42.000,5.000,0
"07/10/06","01:07:32","AMMA06",62946.000,"cc",28298.436,6.00,2829.844,1,6,0.100,46728.000,0.200,14252.000,0.300,1731.000,0.500,175.000,1.000,60.000,5.000,0
"07/10/06","01:07:38","AMMA06",63253.000,"cc",28298.231,6.00,2829.823,1,6,0.100,46896.000,0.200,14265.000,0.300,1859.000,0.500,166.000,1.000,67.000,5.000,0
"07/10/06","01:07:44","AMMA06",62641.000,"cc",28352.018,6.00,2835.202,1,6,0.100,46302.000,0.200,14232.000,0.300,1905.000,0.500,141.000,1.000,61.000,5.000,0
"07/10/06","01:07:50","AMMA06",61845.000,"cc",28343.789,6.00,2834.379,1,6,0.100,45689.000,0.200,14200.000,0.300,1766.000,0.500,145.000,1.000,45.000,5.000,0
"07/10/06","01:07:56","AMMA06",61741.000,"cc",28283.258,6.00,2828.326,1,6,0.100,45567.000,0.200,14267.000,0.300,1734.000,0.500,130.000,1.000,43.000,5.000,0
"07/10/06","01:08:02","AMMA06",62216.000,"cc",28289.867,6.00,2828.987,1,6,0.100,46015.000,0.200,14079.000,0.300,1854.000,0.500,208.000,1.000,60.000,5.000,0
"07/10/06","01:08:08","AMMA06",62490.000,"cc",28324.346,6.00,2832.435,1,6,0.100,46034.000,0.200,14135.000,0.300,2000.000,0.500,230.000,1.000,91.000,5.000,0
"07/10/06","01:08:14","AMMA06",60980.000,"cc",28324.871,6.00,2832.487,1,6,0.100,44846.000,0.200,14182.000,0.300,1779.000,0.500,124.000,1.000,49.000,5.000,0
"07/10/06","01:08:20","AMMA06",60480.000,"cc",28293.426,6.00,2829.343,1,6,0.100,44325.000,0.200,14098.000,0.300,1836.000,0.500,169.000,1.000,52.000,5.000,0
"07/10/06","01:08:26","AMMA06",60425.000,"cc",28305.400,6.00,2830.540,1,6,0.100,44184.000,0.200,14173.000,0.300,1848.000,0.500,160.000,1.000,60.000,5.000,0
"07/10/06","01:08:32","AMMA06",59624.000,"cc",28326.225,6.00,2832.623,1,6,0.100,43889.000,0.200,13786.000,0.300,1783.000,0.500,123.000,1.000,43.000,5.000,0
"07/10/06","01:08:38","AMMA06",59744.000,"cc",28358.934,6.00,2835.894,1,6,0.100,44116.000,0.200,13699.000,0.300,1747.000,0.500,132.000,1.000,50.000,5.000,0
"07/10/06","01:08:44","AMMA06",58881.000,"cc",28326.871,6.00,2832.687,1,6,0.100,43264.000,0.200,13790.000,0.300,1647.000,0.500,132.000,1.000,48.000,5.000,0
"07/10/06","01:08:50","AMMA06",58934.000,"cc",28275.551,6.00,2827.555,1,6,0.100,43311.000,0.200,13718.000,0.300,1719.000,0.500,135.000,1.000,51.000,5.000,0
"07/10/06","01:08:56","AMMA06",58422.000,"cc",28352.920,6.00,2835.292,1,6,0.100,42848.000,0.200,13663.000,0.300,1709.000,0.500,161.000,1.000,41.000,5.000,0
"07/10/06","01:09:02","AMMA06",58320.000,"cc",28317.949,6.00,2831.795,1,6,0.100,42544.000,0.200,13807.000,0.300,1754.000,0.500,156.000,1.000,59.000,5.000,0
"07/10/06","01:09:08","AMMA06",59434.000,"cc",28327.701,6.00,2832.770,1,6,0.100,43610.000,0.200,13816.000,0.300,1772.000,0.500,166.000,1.000,70.000,5.000,0
"07/10/06","01:09:14","AMMA06",57911.000,"cc",28292.711,6.00,2829.271,1,6,0.100,42340.000,0.200,13644.000,0.300,1695.000,0.500,173.000,1.000,59.000,5.000,0
"07/10/06","01:09:20","AMMA06",57811.000,"cc",28280.449,6.00,2828.045,1,6,0.100,42201.000,0.200,13632.000,0.300,1755.000,0.500,177.000,1.000,46.000,5.000,0
"07/10/06","01:09:26","AMMA06",56927.000,"cc",28317.625,6.00,2831.763,1,6,0.100,41320.000,0.200,13648.000,0.300,1751.000,0.500,150.000,1.000,58.000,5.000,0
"07/10/06","01:09:32","AMMA06",56827.000,"cc",28311.055,6.00,2831.106,1,6,0.100,41195.000,0.200,13692.000,0.300,1735.000,0.500,131.000,1.000,74.000,5.000,0
"07/10/06","01:09:38","AMMA06",57053.000,"cc",28312.588,6.00,2831.259,1,6,0.100,41414.000,0.200,13638.000,0.300,1769.000,0.500,159.000,1.000,73.000,5.000,0
"07/10/06","01:09:44","AMMA06",56979.000,"cc",28339.102,6.00,2833.910,1,6,0.100,41373.000,0.200,13649.000,0.300,1770.000,0.500,128.000,1.000,59.000,5.000,0
"07/10/06","01:09:50","AMMA06",58519.000,"cc",28355.457,6.00,2835.546,1,6,0.100,42240.000,0.200,13854.000,0.300,1986.000,0.500,321.000,1.000,118.000,5.000,0
"07/10/06","01:09:56","AMMA06",58667.000,"cc",28296.469,6.00,2829.647,1,6,0.100,42286.000,0.200,13847.000,0.300,2107.000,0.500,307.000,1.000,120.000,5.000,0
"07/10/06","01:10:02","AMMA06",55555.000,"cc",28312.674,6.00,2831.268,1,6,0.100,39715.000,0.200,13656.000,0.300,1913.000,0.500,200.000,1.000,71.000,5.000,0
"07/10/06","01:10:08","AMMA06",55418.000,"cc",28292.861,6.00,2829.286,1,6,0.100,39883.000,0.200,13309.000,0.300,1949.000,0.500,204.000,1.000,73.000,5.000,0
"07/10/06","01:10:14","AMMA06",55437.000,"cc",28331.236,6.00,2833.124,1,6,0.100,39856.000,0.200,13487.000,0.300,1807.000,0.500,203.000,1.000,84.000,5.000,0
"07/10/06","01:10:20","AMMA06",54548.000,"cc",28280.107,6.00,2828.011,1,6,0.100,38877.000,0.200,13662.000,0.300,1777.000,0.500,155.000,1.000,77.000,5.000,0
"07/10/06","01:10:26","AMMA06",53981.000,"cc",28302.773,6.00,2830.278,1,6,0.100,38519.000,0.200,13375.000,0.300,1773.000,0.500,224.000,1.000,90.000,5.000,0
"07/10/06","01:10:32","AMMA06",55604.000,"cc",28311.441,6.00,2831.144,1,6,0.100,39025.000,0.200,14015.000,0.300,2068.000,0.500,355.000,1.000,141.000,5.000,0
"07/10/06","01:10:38","AMMA06",55460.000,"cc",28353.773,6.00,2835.377,1,6,0.100,38991.000,0.200,13857.000,0.300,2160.000,0.500,334.000,1.000,118.000,5.000,0
"07/10/06","01:10:44","AMMA06",53555.000,"cc",28355.709,6.00,2835.571,1,6,0.100,38010.000,0.200,13352.000,0.300,1866.000,0.500,227.000,1.000,100.000,5.000,0
"07/10/06","01:10:50","AMMA06",52272.000,"cc",28336.879,6.00,2833.688,1,6,0.100,36806.000,0.200,13457.000,0.300,1795.000,0.500,163.000,1.000,51.000,5.000,0
"07/10/06","01:10:56","AMMA06",47309.000,"cc",28297.936,6.00,2829.794,1,6,0.100,32614.000,0.200,12790.000,0.300,1706.000,0.500,145.000,1.000,54.000,5.000,0
"07/10/06","01:11:02","AMMA06",48203.000,"cc",28323.565,6.00,2832.357,1,6,0.100,33312.000,0.200,12917.000,0.300,1774.000,0.500,153.000,1.000,47.000,5.000,0
"07/10/06","01:11:08","AMMA06",48115.000,"cc",28292.022,6.00,2829.202,1,6,0.100,33095.000,0.200,13066.000,0.300,1775.000,0.500,120.000,1.000,59.000,5.000,0
"07/10/06","01:11:14","AMMA06",51415.000,"cc",28285.580,6.00,2828.558,1,6,0.100,36093.000,0.200,13366.000,0.300,1742.000,0.500,149.000,1.000,65.000,5.000,0
"07/10/06","01:11:20","AMMA06",48488.000,"cc",28304.795,6.00,2830.480,1,6,0.100,33782.000,0.200,12720.000,0.300,1763.000,0.500,170.000,1.000,53.000,5.000,0
"07/10/06","01:11:26","AMMA06",45407.000,"cc",28333.387,6.00,2833.339,1,6,0.100,31063.000,0.200,12519.000,0.300,1662.000,0.500,124.000,1.000,39.000,5.000,0
"07/10/06","01:11:32","AMMA06",45788.000,"cc",28320.619,6.00,2832.062,1,6,0.100,31480.000,0.200,12522.000,0.300,1610.000,0.500,116.000,1.000,60.000,5.000,0
"07/10/06","01:11:38","AMMA06",46271.000,"cc",28292.574,6.00,2829.258,1,6,0.100,31724.000,0.200,12687.000,0.300,1691.000,0.500,117.000,1.000,52.000,5.000,0
"07/10/06","01:11:44","AMMA06",44480.000,"cc",28366.231,6.00,2836.623,1,6,0.100,30181.000,0.200,12416.000,0.300,1698.000,0.500,121.000,1.000,64.000,5.000,0
"07/10/06","01:11:50","AMMA06",44811.000,"cc",28320.436,6.00,2832.044,1,6,0.100,30283.000,0.200,12698.000,0.300,1642.000,0.500,141.000,1.000,47.000,5.000,0
"07/10/06","01:11:56","AMMA06",45993.000,"cc",28320.293,6.00,2832.030,1,6,0.100,31417.000,0.200,12642.000,0.300,1763.000,0.500,132.000,1.000,39.000,5.000,0
"07/10/06","01:12:02","AMMA06",45406.000,"cc",28314.750,6.00,2831.475,1,6,0.100,30863.000,0.200,12682.000,0.300,1675.000,0.500,143.000,1.000,43.000,5.000,0
"07/10/06","01:12:08","AMMA06",45519.000,"cc",28316.568,6.00,2831.657,1,6,0.100,30877.000,0.200,12714.000,0.300,1741.000,0.500,137.000,1.000,50.000,5.000,0
"07/10/06","01:12:14","AMMA06",45859.000,"cc",28276.029,6.00,2827.603,1,6,0.100,31180.000,0.200,12816.000,0.300,1707.000,0.500,115.000,1.000,41.000,5.000,0
"07/10/06","01:12:20","AMMA06",45404.000,"cc",28318.373,6.00,2831.837,1,6,0.100,30690.000,0.200,12563.000,0.300,1850.000,0.500,216.000,1.000,85.000,5.000,0
"07/10/06","01:12:26","AMMA06",45223.000,"cc",28370.566,6.00,2837.057,1,6,0.100,30719.000,0.200,12530.000,0.300,1729.000,0.500,187.000,1.000,58.000,5.000,0
"07/10/06","01:12:32","AMMA06",43978.000,"cc",28307.773,6.00,2830.778,1,6,0.100,29750.000,0.200,12398.000,0.300,1650.000,0.500,135.000,1.000,45.000,5.000,0
"07/10/06","01:12:38","AMMA06",42921.000,"cc",28317.455,6.00,2831.746,1,6,0.100,28724.000,0.200,12337.000,0.300,1694.000,0.500,119.000,1.000,47.000,5.000,0
"07/10/06","01:12:44","AMMA06",42765.000,"cc",28340.721,6.00,2834.072,1,6,0.100,28692.000,0.200,12259.000,0.300,1642.000,0.500,134.000,1.000,38.000,5.000,0
"07/10/06","01:12:50","AMMA06",43322.000,"cc",28320.965,6.00,2832.097,1,6,0.100,29095.000,0.200,12409.000,0.300,1650.000,0.500,118.000,1.000,50.000,5.000,0
"07/10/06","01:12:56","AMMA06",44952.000,"cc",28328.072,6.00,2832.807,1,6,0.100,30434.000,0.200,12672.000,0.300,1681.000,0.500,117.000,1.000,48.000,5.000,0
"07/10/06","01:13:02","AMMA06",46178.000,"cc",28279.170,6.00,2827.917,1,6,0.100,31296.000,0.200,12977.000,0.300,1740.000,0.500,110.000,1.000,55.000,5.000,0
"07/10/06","01:13:08","AMMA06",46088.000,"cc",28318.346,6.00,2831.835,1,6,0.100,31448.000,0.200,12709.000,0.300,1737.000,0.500,131.000,1.000,63.000,5.000,0
"07/10/06","01:13:14","AMMA06",46554.000,"cc",28326.938,6.00,2832.694,1,6,0.100,31606.000,0.200,13044.000,0.300,1706.000,0.500,144.000,1.000,54.000,5.000,0
"07/10/06","01:13:20","AMMA06",47214.000,"cc",28317.074,6.00,2831.708,1,6,0.100,32289.000,0.200,12966.000,0.300,1768.000,0.500,137.000,1.000,54.000,5.000,0
"07/10/06","01:13:26","AMMA06",47152.000,"cc",28329.951,6.00,2832.995,1,6,0.100,32210.000,0.200,12921.000,0.300,1773.000,0.500,183.000,1.000,65.000,5.000,0
"07/10/06","01:13:32","AMMA06",48834.000,"cc",28293.316,6.00,2829.332,1,6,0.100,33360.000,0.200,13343.000,0.300,1826.000,0.500,221.000,1.000,84.000,5.000,0
"07/10/06","01:13:38","AMMA06",48715.000,"cc",28286.475,6.00,2828.648,1,6,0.100,33470.000,0.200,13285.000,0.300,1737.000,0.500,165.000,1.000,58.000,5.000,0
"07/10/06","01:13:44","AMMA06",48965.000,"cc",28341.697,6.00,2834.170,1,6,0.100,33695.000,0.200,13214.000,0.300,1801.000,0.500,180.000,1.000,75.000,5.000,0
"07/10/06","01:13:50","AMMA06",49311.000,"cc",28323.807,6.00,2832.381,1,6,0.100,33982.000,0.200,13311.000,0.300,1795.000,0.500,167.000,1.000,56.000,5.000,0
"07/10/06","01:13:56","AMMA06",48800.000,"cc",28291.865,6.00,2829.187,1,6,0.100,33675.000,0.200,13225.000,0.300,1698.000,0.500,149.000,1.000,53.000,5.000,0
"07/10/06","01:14:02","AMMA06",48768.000,"cc",28292.916,6.00,2829.292,1,6,0.100,33556.000,0.200,13230.000,0.300,1745.000,0.500,181.000,1.000,56.000,5.000,0
"07/10/06","01:14:08","AMMA06",48994.000,"cc",28267.250,6.00,2826.725,1,6,0.100,33861.000,0.200,13160.000,0.300,1784.000,0.500,134.000,1.000,55.000,5.000,0
"07/10/06","01:14:14","AMMA06",49378.000,"cc",28369.219,6.00,2836.922,1,6,0.100,34269.000,0.200,13135.000,0.300,1768.000,0.500,149.000,1.000,57.000,5.000,0
"07/10/06","01:14:20","AMMA06",49257.000,"cc",28357.725,6.00,2835.773,1,6,0.100,34431.000,0.200,12922.000,0.300,1742.000,0.500,114.000,1.000,48.000,5.000,0